Time,TemperatureF,DewpointF,PressureIn,WindDirection,WindDirectionDegrees,WindSpeedMPH,WindSpeedGustMPH,Humidity,HourlyPrecipIn,Conditions,Clouds,dailyrainin,SolarRadiationWatts/m^2,SoftwareType,DateUTC
2013-07-05 00:00:00,72.4,70.9,30.25,SSE,155,0.0,0.0,95,0.00,,,0.01,0,Wunderground v.1.15,2013-07-05 04:00:00,
2013-07-05 00:30:00,72.0,70.5,30.25,SSE,155,0.0,0.0,95,0.00,,,0.00,0,Wunderground v.1.15,2013-07-05 04:30:00,
2013-07-05 01:00:00,72.1,70.9,30.24,SSE,155,0.0,0.0,96,0.00,,,0.00,0,Wunderground v.1.15,2013-07-05 05:00:00,
2013-07-05 01:30:00,71.5,70.3,30.24,SSE,155,0.0,0.0,96,0.00,,,0.00,0,Wunderground v.1.15,2013-07-05 05:30:00,
2013-07-05 02:00:00,71.2,70.0,30.23,SSE,155,0.0,0.0,96,0.00,,,0.00,0,Wunderground v.1.15,2013-07-05 06:00:00,
2013-07-05 02:30:00,71.0,69.8,30.23,SSE,155,0.0,0.0,96,0.00,,,0.00,0,Wunderground v.1.15,2013-07-05 06:30:00,
2013-07-05 03:00:00,70.8,69.6,30.22,SSE,155,0.0,0.0,96,0.00,,,0.00,0,Wunderground v.1.15,2013-07-05 07:00:00,
2013-07-05 03:30:00,70.4,69.2,30.21,SSE,155,0.0,0.0,96,0.00,,,0.00,0,Wunderground v.1.15,2013-07-05 07:30:00,
2013-07-05 04:00:00,70.1,68.9,30.21,SSE,155,0.0,0.0,96,0.00,,,0.00,0,Wunderground v.1.15,2013-07-05 08:00:00,
2013-07-05 04:30:00,70.2,69.0,30.21,SSE,155,0.0,0.0,96,0.00,,,0.00,0,Wunderground v.1.15,2013-07-05 08:30:00,
2013-07-05 05:00:00,70.0,68.8,30.21,SSE,155,0.0,0.0,96,0.00,,,0.00,0,Wunderground v.1.15,2013-07-05 09:00:00,
2013-07-05 05:30:00,69.8,68.6,30.22,SSE,155,0.0,0.0,96,0.00,,,0.00,0,Wunderground v.1.15,2013-07-05 09:30:00,
2013-07-05 06:00:00,69.9,69.0,30.23,SSE,155,0.0,0.0,97,0.00,,,0.00,0,Wunderground v.1.15,2013-07-05 10:00:00,
2013-07-05 07:00:00,70.5,69.6,30.23,SSE,155,0.0,0.0,97,0.00,,,0.00,19,Wunderground v.1.15,2013-07-05 11:00:00,
2013-07-05 08:30:00,81.1,78.2,30.25,South,181,1.0,1.0,91,0.00,,,0.00,301,Wunderground v.1.15,2013-07-05 12:30:00,
2013-07-05 09:00:00,82.1,77.5,30.25,SSE,163,2.0,2.0,86,0.00,,,0.00,199,Wunderground v.1.15,2013-07-05 13:00:00,
2013-07-05 09:30:00,84.3,78.6,30.25,South,190,2.0,2.0,83,0.00,,,0.00,719,Wunderground v.1.15,2013-07-05 13:30:00,
2013-07-05 10:30:00,85.4,77.4,30.25,SSW,213,4.0,4.0,77,0.00,,,0.00,809,Wunderground v.1.15,2013-07-05 14:30:00,
2013-07-05 11:00:00,85.1,76.7,30.25,South,169,2.0,2.0,76,0.00,,,0.00,229,Wunderground v.1.15,2013-07-05 15:00:00,
2013-07-05 11:30:00,83.8,76.2,30.26,SE,138,3.0,3.0,78,0.00,,,0.00,232,Wunderground v.1.15,2013-07-05 15:30:00,
2013-07-05 12:00:00,78.9,74.7,30.27,WSW,255,1.0,4.0,87,0.00,,,0.00,97,Wunderground v.1.15,2013-07-05 16:00:00,
2013-07-05 12:30:00,75.7,73.5,30.27,WNW,287,0.0,0.0,93,0.39,,,0.21,128,Wunderground v.1.15,2013-07-05 16:30:00,
2013-07-05 13:00:00,76.9,75.0,30.25,SSW,209,1.0,2.0,94,0.16,,,0.38,501,Wunderground v.1.15,2013-07-05 17:00:00,
2013-07-05 13:30:00,80.0,77.8,30.24,South,176,0.0,0.0,93,0.00,,,0.38,473,Wunderground v.1.15,2013-07-05 17:30:00,
2013-07-05 14:00:00,82.6,78.3,30.24,SSE,157,4.0,4.0,87,0.00,,,0.38,1021,Wunderground v.1.15,2013-07-05 18:00:00,
2013-07-05 14:30:00,84.8,77.2,30.23,SE,127,4.0,5.0,78,0.00,,,0.38,933,Wunderground v.1.15,2013-07-05 18:30:00,
2013-07-05 15:00:00,85.4,77.4,30.23,South,179,4.0,4.0,77,0.00,,,0.38,345,Wunderground v.1.15,2013-07-05 19:00:00,
2013-07-05 15:30:00,84.8,76.8,30.21,SSE,148,4.0,4.0,77,0.00,,,0.38,230,Wunderground v.1.15,2013-07-05 19:30:00,
2013-07-05 16:00:00,85.1,76.3,30.20,ESE,113,4.0,4.0,75,0.00,,,0.38,807,Wunderground v.1.15,2013-07-05 20:00:00,
2013-07-05 16:30:00,86.5,76.4,30.19,ESE,119,3.0,6.0,72,0.00,,,0.38,860,Wunderground v.1.15,2013-07-05 20:30:00,
2013-07-05 17:00:00,84.6,75.8,30.18,South,186,4.0,4.0,75,0.00,,,0.38,629,Wunderground v.1.15,2013-07-05 21:00:00,
2013-07-05 17:30:00,83.2,75.2,30.18,SE,137,4.0,4.0,77,0.00,,,0.38,139,Wunderground v.1.15,2013-07-05 21:30:00,
2013-07-05 18:00:00,83.8,75.4,30.18,SSE,166,4.0,4.0,76,0.00,,,0.38,174,Wunderground v.1.15,2013-07-05 22:00:00,
2013-07-05 18:30:00,83.1,75.1,30.17,South,178,4.0,4.0,77,0.00,,,0.38,79,Wunderground v.1.15,2013-07-05 22:30:00,
2013-07-05 19:00:00,82.0,74.1,30.18,SSE,158,4.0,4.0,77,0.00,,,0.38,47,Wunderground v.1.15,2013-07-05 23:00:00,
2013-07-05 19:30:00,80.8,74.0,30.19,SSE,148,2.0,4.0,80,0.00,,,0.38,23,Wunderground v.1.15,2013-07-05 23:30:00,
2013-07-05 20:00:00,78.9,73.7,30.19,South,169,0.0,0.0,84,0.00,,,0.38,9,Wunderground v.1.15,2013-07-06 00:00:00,
2013-07-05 20:30:00,77.0,73.2,30.20,SSE,155,0.0,0.0,88,0.00,,,0.38,0,Wunderground v.1.15,2013-07-06 00:30:00,
2013-07-05 21:00:00,76.1,73.0,30.20,SE,144,0.0,1.0,90,0.00,,,0.38,0,Wunderground v.1.15,2013-07-06 01:00:00,
2013-07-05 21:30:00,74.6,72.1,30.21,SE,144,0.0,0.0,92,0.00,,,0.38,0,Wunderground v.1.15,2013-07-06 01:30:00,
2013-07-05 22:00:00,73.5,71.7,30.22,SE,144,0.0,0.0,94,0.00,,,0.38,0,Wunderground v.1.15,2013-07-06 02:00:00,
2013-07-05 22:30:00,72.7,70.9,30.24,SE,144,0.0,0.0,94,0.00,,,0.38,0,Wunderground v.1.15,2013-07-06 02:30:00,
2013-07-05 23:00:00,72.0,70.2,30.24,SE,144,0.0,0.0,94,0.00,,,0.38,0,Wunderground v.1.15,2013-07-06 03:00:00,
2013-07-05 23:30:00,71.7,70.2,30.24,SE,144,0.0,0.0,95,0.00,,,0.38,0,Wunderground v.1.15,2013-07-06 03:30:00,